| time (UTC) | temp F | wind direction | speed knots | gust knots | rain 1hr in | rain 24hr in | rain mn in | humidity % | barometer mb |
| 20260505180031 | 58 | 203 | 7.0 | 13.9 | 0.00 | 0.00 | 0.00 | 63 | 1010.1 |
| 20260505174531 | 58 | 203 | 7.0 | 13.9 | 0.00 | 0.00 | 0.00 | 63 | 1010.2 |
| 20260505173041 | 58 | 203 | 7.0 | 13.0 | 0.00 | 0.00 | 0.00 | 63 | 1010.2 |
| 20260505171541 | 58 | 203 | 5.2 | 11.3 | 0.00 | 0.00 | 0.00 | 62 | 1010.3 |
| 20260505170026 | 58 | 120 | 4.3 | 10.4 | 0.00 | 0.00 | 0.00 | 62 | 1010.3 |
| 20260505164525 | 58 | 131 | 5.2 | 12.2 | 0.00 | 0.00 | 0.00 | 62 | 1010.5 |
| 20260505163022 | 58 | 106 | 6.1 | 9.6 | 0.00 | 0.00 | 0.00 | 62 | 1010.6 |
| 20260505161631 | 58 | 131 | 7.0 | 11.3 | 0.00 | 0.00 | 0.00 | 62 | 1010.9 |
| 20260505153014 | 59 | 124 | 4.3 | 9.6 | 0.00 | 0.00 | 0.00 | 60 | 1011.1 |
| 20260505151510 | 60 | 203 | 4.3 | 7.0 | 0.00 | 0.00 | 0.00 | 60 | 1011.2 |
| 20260505124530 | 56 | 203 | 4.3 | 6.1 | 0.00 | 0.00 | 0.00 | 62 | 1011.8 |
| 20260505123030 | 57 | 203 | 3.5 | 5.2 | 0.00 | 0.00 | 0.00 | 60 | 1011.7 |
| 20260505121536 | 59 | 135 | 2.6 | 5.2 | 0.00 | 0.00 | 0.00 | 58 | 1011.6 |
| 20260505120121 | 61 | 203 | 1.7 | 3.5 | 0.00 | 0.00 | 0.00 | 56 | 1011.6 |
| 20260505120004 | 61 | 203 | 1.7 | 3.5 | 0.00 | 0.00 | 0.00 | 56 | 1011.6 |
| 20260505114601 | 62 | 203 | 0.0 | 4.3 | 0.00 | 0.00 | 0.00 | 59 | 1011.6 |
| 20260505113056 | 62 | 203 | 1.7 | 5.2 | 0.00 | 0.00 | 0.00 | 59 | 1011.7 |
| 20260505111557 | 62 | 203 | 2.6 | 6.1 | 0.00 | 0.00 | 0.00 | 59 | 1011.7 |
| 20260505101554 | 61 | 203 | 5.2 | 8.7 | 0.00 | 0.00 | 0.00 | 60 | 1010.7 |
| 20260505100052 | 61 | 203 | 4.3 | 10.4 | 0.00 | 0.00 | 0.00 | 60 | 1010.5 |
| 20260505094552 | 61 | 203 | 5.2 | 8.7 | 0.00 | 0.00 | 0.00 | 60 | 1010.4 |
| 20260505093052 | 60 | 203 | 5.2 | 9.6 | 0.00 | 0.00 | 0.00 | 60 | 1010.4 |
| 20260505091549 | 60 | 203 | 3.5 | 7.8 | 0.00 | 0.00 | 0.00 | 60 | 1010.5 |
| 20260505090051 | 59 | 203 | 2.6 | 6.1 | 0.00 | 0.00 | 0.00 | 61 | 1010.3 |
| 20260505084547 | 57 | 203 | 2.6 | 6.1 | 0.00 | 0.00 | 0.00 | 63 | 1010.6 |
| 20260505083049 | 55 | 203 | 0.0 | 5.2 | 0.00 | 0.00 | 0.00 | 66 | 1010.5 |
| 20260505081545 | 53 | 203 | 0.0 | 0.0 | 0.00 | 0.00 | 0.00 | 65 | 1010.6 |
| 20260505080044 | 53 | 203 | 0.0 | 0.0 | 0.00 | 0.00 | 0.00 | 65 | 1010.7 |
| 20260505074543 | 53 | 203 | 0.0 | 0.0 | 0.00 | 0.00 | 0.00 | 65 | 1010.7 |
| 20260505073058 | 54 | 203 | 0.0 | 0.0 | 0.00 | 0.00 | 0.00 | 64 | 1010.4 |
| 20260505071541 | 55 | 203 | 0.0 | 0.0 | 0.00 | 0.00 | 0.00 | 63 | 1010.4 |
| 20260505070040 | 56 | 203 | 0.0 | 0.0 | 0.00 | 0.00 | 0.00 | 64 | 1010.4 |
| 20260505064543 | 57 | 203 | 0.0 | 7.0 | 0.00 | 0.00 | 0.00 | 64 | 1010.5 |
| 20260505063038 | 55 | 203 | 1.7 | 4.3 | 0.00 | 0.00 | 0.00 | 66 | 1010.4 |
| 20260505061548 | 54 | 203 | 0.0 | 0.0 | 0.00 | 0.00 | 0.00 | 67 | 1010.6 |
| 20260505060036 | 53 | 203 | 0.0 | 0.0 | 0.00 | 0.00 | 0.00 | 66 | 1010.5 |
| 20260505054557 | 53 | 203 | 0.0 | 0.0 | 0.00 | 0.00 | 0.00 | 66 | 1010.6 |
| 20260505053035 | 53 | 203 | 1.7 | 4.3 | 0.00 | 0.00 | 0.00 | 66 | 1010.7 |
| 20260505051533 | 53 | 203 | 0.9 | 3.5 | 0.00 | 0.00 | 0.00 | 65 | 1010.9 |
| 20260505041521 | 55 | 131 | 1.7 | 4.3 | 0.00 | 0.00 | 0.00 | 64 | 1011.2 |
| 20260505040020 | 55 | 123 | 0.0 | 4.3 | 0.00 | 0.00 | 0.00 | 63 | 1011.3 |
| 20260505034522 | 55 | 203 | 0.0 | 2.6 | 0.00 | 0.00 | 0.00 | 62 | 1011.3 |
| 20260505033049 | 56 | 203 | 0.9 | 2.6 | 0.00 | 0.00 | 0.00 | 62 | 1011.2 |
| 20260505031602 | 56 | 203 | 1.7 | 4.3 | 0.00 | 0.00 | 0.00 | 60 | 1011.4 |
| 20260505030043 | 57 | 203 | 0.0 | 2.6 | 0.00 | 0.00 | 0.00 | 59 | 1011.4 |
| 20260505024543 | 58 | 203 | 1.7 | 3.5 | 0.00 | 0.00 | 0.00 | 58 | 1011.5 |
| 20260505023041 | 57 | 203 | 0.0 | 1.7 | 0.00 | 0.00 | 0.00 | 58 | 1011.7 |
| 20260505021542 | 57 | 203 | 0.0 | 2.6 | 0.00 | 0.00 | 0.00 | 58 | 1011.7 |
| 20260505020041 | 58 | 203 | 0.0 | 1.7 | 0.00 | 0.00 | 0.00 | 58 | 1011.7 |
| 20260505014539 | 58 | 203 | 0.0 | 3.5 | 0.00 | 0.00 | 0.00 | 58 | 1011.6 |
| 20260505013038 | 59 | 203 | 1.7 | 3.5 | 0.00 | 0.00 | 0.00 | 56 | 1011.5 |
| 20260505011538 | 59 | 203 | 0.9 | 3.5 | 0.00 | 0.00 | 0.00 | 56 | 1011.4 |
| 20260505010037 | 59 | 203 | 0.0 | 3.5 | 0.00 | 0.00 | 0.00 | 54 | 1011.1 |
| 20260505004545 | 59 | 203 | 0.9 | 4.3 | 0.00 | 0.00 | 0.00 | 55 | 1010.9 |
| 20260505003034 | 57 | 203 | 0.0 | 1.7 | 0.00 | 0.00 | 0.00 | 59 | 1010.9 |
| 20260505001534 | 57 | 203 | 0.9 | 5.2 | 0.00 | 0.00 | 0.00 | 60 | 1010.6 |
| 20260505000054 | 57 | 203 | 0.0 | 5.2 | 0.00 | 0.00 | 0.00 | 60 | 1010.3 |
| 20260504234531 | 57 | 203 | 0.9 | 5.2 | 0.00 | 0.00 | 0.00 | 60 | 1010.3 |
| 20260504233031 | 58 | 203 | 3.5 | 6.1 | 0.00 | 0.00 | 0.00 | 59 | 1010.1 |
| 20260504231531 | 59 | 203 | 1.7 | 5.2 | 0.00 | 0.00 | 0.00 | 59 | 1010.0 |
| 20260504230030 | 58 | 72 | 0.9 | 6.1 | 0.00 | 0.00 | 0.00 | 61 | 1009.9 |
| 20260504224527 | 57 | 203 | 1.7 | 7.8 | 0.00 | 0.00 | 0.00 | 61 | 1009.9 |
| 20260504223027 | 58 | 137 | 4.3 | 10.4 | 0.00 | 0.00 | 0.00 | 61 | 1009.9 |
| 20260504221527 | 57 | 131 | 3.5 | 11.3 | 0.00 | 0.00 | 0.00 | 61 | 1009.9 |
| 20260504220026 | 57 | 203 | 3.5 | 12.2 | 0.00 | 0.00 | 0.00 | 61 | 1010.0 |
| 20260504214559 | 58 | 203 | 3.5 | 11.3 | 0.00 | 0.00 | 0.00 | 60 | 1010.1 |
| 20260504213055 | 57 | 203 | 4.3 | 11.3 | 0.00 | 0.00 | 0.00 | 61 | 1010.3 |
| 20260504211552 | 57 | 350 | 6.1 | 12.2 | 0.00 | 0.00 | 0.00 | 61 | 1010.2 |
| 20260504210053 | 58 | 203 | 5.2 | 11.3 | 0.00 | 0.00 | 0.00 | 59 | 1010.3 |
| 20260504204549 | 58 | 122 | 5.2 | 13.0 | 0.00 | 0.00 | 0.00 | 59 | 1010.1 |
| 20260504203059 | 57 | 203 | 6.1 | 12.2 | 0.00 | 0.00 | 0.00 | 59 | 1010.0 |
| 20260504201515 | 58 | 203 | 5.2 | 12.2 | 0.00 | 0.00 | 0.00 | 58 | 1010.2 |
| 20260504200013 | 58 | 203 | 6.1 | 12.2 | 0.00 | 0.00 | 0.00 | 58 | 1010.3 |
| 20260504194507 | 58 | 134 | 4.3 | 13.0 | 0.00 | 0.00 | 0.00 | 58 | 1010.4 |
| 20260504193008 | 59 | 203 | 5.2 | 14.8 | 0.00 | 0.00 | 0.00 | 57 | 1010.4 |
| 20260504191504 | 60 | 131 | 2.6 | 9.6 | 0.00 | 0.00 | 0.00 | 55 | 1010.9 |
| 20260504190002 | 61 | 21 | 1.7 | 9.6 | 0.00 | 0.00 | 0.00 | 55 | 1011.1 |
| 20260504184558 | 61 | 126 | 5.2 | 10.4 | 0.00 | 0.00 | 0.00 | 53 | 1011.1 |
| 20260504183102 | 65 | 203 | 1.7 | 9.6 | 0.00 | 0.00 | 0.00 | 46 | 1011.3 |
| 20260504181557 | 67 | 203 | 2.6 | 8.7 | 0.00 | 0.00 | 0.00 | 39 | 1011.5 |